Theta_e
315 316 316 317 317 317 318 319 319 320 321 321 320 318 316 316 315 315 315 316 316 316 316 317 317 316 318 320 318 319 318 319 316 317 317 317 316 315 314 312 310 308 308 306 307
316 315 316 317 317 318 318 319 319 320 321 321 320 319 315 316 317 313 312 313 313 313 314 314 316 318 318 319 320 318 317 318 315 315 315 315 315 315 313 310 307 306 306 305 305
319 317 316 317 318 318 319 319 320 320 321 321 320 319 315 316 318 314 312 312 312 313 313 314 317 317 318 319 318 317 316 316 316 316 316 315 313 314 311 307 308 305 304 304 303
320 319 317 317 318 319 319 320 320 321 321 321 320 318 317 318 320 314 312 312 313 313 314 314 315 316 316 317 318 315 317 317 316 315 315 314 313 310 310 307 306 305 304 303 302
318 320 319 319 320 320 320 320 321 321 320 321 320 318 318 319 315 314 313 312 313 314 314 313 313 314 315 316 316 315 316 317 316 316 315 315 313 309 305 306 306 304 303 302 302
316 318 320 320 320 320 320 320 319 319 319 320 320 318 318 320 317 313 312 313 312 314 315 313 312 313 315 317 315 316 316 315 316 315 315 314 310 310 305 305 304 303 302 301 301
314 316 318 319 319 319 319 318 317 316 315 319 319 318 320 320 315 309 311 313 312 311 313 313 312 313 316 315 316 315 313 314 314 314 313 313 312 309 305 304 303 302 301 301 300
312 314 316 318 319 318 318 317 316 315 317 318 319 318 321 317 310 309 312 312 312 311 313 314 313 312 314 315 315 314 313 314 314 313 313 311 309 304 304 303 302 300 300 299 298
310 312 314 316 317 318 317 316 315 315 318 318 319 319 321 317 313 311 312 314 313 312 315 316 314 315 315 314 313 313 313 312 313 313 312 311 310 305 304 302 300 299 299 298 296
309 310 312 314 316 316 316 315 314 317 318 318 319 320 317 318 317 315 314 314 312 315 317 317 314 310 310 311 313 310 310 311 312 312 311 311 310 305 304 302 300 299 297 296 296
309 309 311 312 314 316 315 315 317 319 317 316 317 317 317 317 317 315 314 312 314 316 316 317 312 313 313 311 311 311 311 311 310 312 311 310 310 304 302 300 298 298 297 296 296
309 308 309 312 314 316 316 318 316 314 313 315 315 315 315 316 314 314 313 314 314 314 314 311 314 312 311 310 311 312 312 310 309 310 309 308 307 308 301 298 298 297 297 296 295
308 308 308 311 314 314 317 317 317 314 313 315 316 317 317 315 314 315 312 313 314 314 314 313 314 309 309 309 311 310 309 309 310 308 306 305 304 305 300 299 298 298 298 295 295
307 308 308 311 313 317 316 317 317 314 310 313 313 316 315 314 312 313 312 314 313 315 311 309 309 309 311 311 311 309 308 307 307 306 305 304 304 301 299 299 297 298 296 295 295
307 308 308 311 317 318 315 317 317 314 308 312 316 314 314 313 313 314 314 312 312 313 312 314 307 307 308 308 309 309 305 305 305 304 303 303 302 301 299 298 298 296 295 295 294
307 308 308 312 316 316 316 315 314 312 313 317 316 315 313 312 313 313 312 312 310 307 307 310 308 306 306 309 308 307 307 304 303 302 302 303 302 301 298 300 297 294 294 294 293
308 308 309 312 315 315 312 312 308 312 312 316 315 314 314 314 313 312 312 312 314 314 313 309 307 306 308 308 307 307 303 304 304 304 306 302 301 304 301 299 297 292 293 293 293
308 310 311 312 317 316 311 309 313 311 315 314 313 313 314 314 315 311 309 311 309 309 308 310 312 307 306 307 307 307 302 305 305 305 308 300 303 303 297 294 294 294 293 292 292
310 313 312 310 317 316 306 309 311 311 313 315 313 315 316 313 314 309 307 308 310 307 311 310 310 302 301 302 303 304 303 302 303 288 295 300 299 297 295 294 292 292 292 292 292
311 313 313 310 316 315 303 313 312 312 314 314 317 314 315 313 311 309 310 309 310 307 307 307 309 303 299 300 299 301 301 302 302 306 298 300 302 303 295 294 292 291 291 292 292
312 313 312 310 314 306 306 308 311 314 315 313 313 315 314 313 310 310 312 311 306 302 304 303 304 304 299 299 301 296 299 299 300 303 304 300 302 297 297 295 291 291 292 292 291
311 312 313 313 310 307 311 308 312 312 313 312 311 312 312 312 313 313 314 313 306 303 304 302 302 301 301 299 298 298 299 300 302 303 299 301 303 297 296 292 291 291 292 291 291
312 311 311 311 313 312 311 311 312 311 311 311 311 311 311 312 313 313 313 306 306 303 301 299 300 301 308 296 295 295 295 297 297 298 300 301 301 294 292 290 292 291 291 291 291
311 310 309 308 311 310 311 313 313 312 311 311 310 310 311 310 311 312 310 302 303 302 302 301 301 309 314 312 299 299 294 294 297 300 301 301 300 296 292 290 289 291 291 291 290
310 310 309 309 309 309 310 311 312 313 311 312 311 311 311 311 310 311 309 299 299 300 299 299 301 301 305 304 302 303 301 295 295 297 300 301 300 300 299 295 291 290 291 290 290
312 308 309 307 308 308 309 310 310 310 311 311 311 308 310 311 310 310 311 307 306 296 296 297 301 301 303 301 301 299 299 297 297 297 297 297 297 299 298 294 290 290 290 290 289
315 313 310 309 308 309 309 309 310 310 310 312 310 311 310 309 310 310 310 309 308 300 297 298 299 301 306 301 298 300 299 299 299 298 298 296 297 298 295 291 290 290 290 290 289
Wind_Speed
12 14 16 18 19 20 22 23 24 26 26 28 27 17 8 11 17 13 14 11 8 8 6 5 4 7 3 4 4 1 4 2 3 4 3 4 3 12 16 25 25 15 17 11 5
12 13 14 16 17 19 20 21 23 25 26 28 25 15 3 4 9 16 14 11 9 10 10 9 9 6 2 1 4 4 3 1 1 2 2 2 4 5 5 11 14 22 15 6 8
12 14 14 15 16 17 18 19 21 23 25 27 24 13 3 2 3 10 12 11 9 11 12 11 9 7 4 0 1 2 3 2 4 7 5 2 6 2 17 5 5 16 15 11 10
13 13 14 15 16 16 17 18 19 21 24 26 23 9 5 3 2 4 9 11 9 9 11 9 9 3 3 1 1 2 7 1 3 6 2 1 5 6 3 11 14 14 11 8 10
12 14 14 15 16 16 16 17 18 20 23 25 21 7 1 2 3 2 4 8 9 9 8 11 10 6 2 4 2 3 3 3 6 3 1 3 8 10 18 17 13 11 8 8 9
12 13 15 16 16 16 16 17 18 19 21 22 18 6 1 1 1 1 2 3 8 9 10 9 7 6 5 3 2 3 6 10 4 4 4 4 11 10 14 16 13 10 11 10 10
13 13 14 16 17 17 17 17 18 19 19 19 14 3 2 4 3 1 4 2 7 8 11 8 8 6 5 5 2 1 3 3 6 5 4 4 2 5 24 17 18 15 13 11 11
14 15 15 16 18 19 19 19 20 19 19 10 10 2 2 4 5 1 4 4 6 8 10 7 8 6 2 7 4 1 2 1 4 8 4 3 5 7 26 24 19 15 11 8 7
15 15 16 16 18 20 21 22 21 20 12 9 5 3 3 4 7 7 4 6 8 5 8 5 7 3 1 2 4 4 3 3 4 8 2 3 5 14 27 23 20 16 12 8 5
16 16 16 16 17 20 22 24 20 11 2 8 1 3 4 4 6 7 7 5 5 7 5 4 0 2 4 3 3 4 4 4 4 3 6 6 6 8 27 24 21 17 13 8 6
18 17 16 16 16 19 22 23 17 3 14 11 15 15 17 16 10 7 5 4 2 2 2 4 3 5 5 1 1 3 5 7 8 4 5 7 6 13 20 21 21 20 15 9 5
19 17 16 15 15 14 14 10 8 8 12 18 17 17 16 9 4 5 4 2 1 1 4 6 6 6 6 5 5 6 7 8 7 4 0 5 10 8 22 20 25 22 15 11 6
18 18 16 13 12 11 9 9 11 12 5 6 4 4 3 7 4 6 3 1 2 2 2 4 4 5 4 2 3 5 6 4 7 5 6 7 8 7 6 14 22 19 14 9 4
17 17 15 12 10 4 6 8 11 12 4 5 2 2 4 3 2 5 2 1 1 2 2 6 2 4 3 5 6 5 2 2 5 4 4 2 9 4 9 12 13 22 17 10 6
19 16 15 10 7 7 6 6 8 4 4 4 3 2 3 4 0 2 1 1 4 5 5 9 4 5 5 5 5 6 2 4 5 9 3 6 5 5 12 12 12 15 14 9 4
21 17 15 11 10 8 6 5 5 5 7 3 4 3 1 4 3 3 1 0 1 1 3 9 0 5 7 2 3 2 3 5 4 2 3 9 11 4 7 14 14 15 15 10 4
21 18 16 14 9 8 6 3 4 4 3 5 4 4 3 4 4 4 3 0 1 5 4 5 5 1 3 2 3 2 4 4 5 2 7 2 1 13 7 7 18 16 18 10 3
20 16 16 16 13 12 9 3 5 7 7 2 3 3 6 7 4 3 4 2 5 3 1 3 6 6 4 4 6 6 7 4 7 4 10 6 7 5 2 17 26 21 16 9 3
18 14 19 17 16 14 12 4 10 9 5 8 2 3 4 4 3 4 6 6 7 8 8 3 5 2 4 1 4 3 4 2 1 2 2 5 5 3 2 7 13 17 14 8 2
15 12 19 16 17 16 3 15 8 9 6 4 9 8 8 6 6 6 7 5 5 5 5 4 7 0 2 2 3 2 3 2 1 4 7 6 8 9 11 13 8 9 11 4 6
13 7 9 18 18 14 8 10 13 18 9 8 8 6 6 6 9 7 7 4 6 4 5 5 5 2 4 7 9 1 3 4 2 5 5 2 6 4 17 15 11 9 10 4 4
14 4 11 23 9 7 13 9 11 12 35 17 7 10 10 7 6 8 11 10 17 15 10 7 5 5 11 4 2 4 10 10 5 6 5 11 20 6 12 11 16 16 12 6 4
10 16 10 28 8 10 5 9 21 8 14 6 9 10 9 9 6 12 14 4 23 12 10 9 4 2 7 3 3 6 5 6 3 0 20 11 10 2 10 10 17 17 13 8 5
11 4 12 27 21 6 11 15 15 18 28 15 8 10 5 7 10 6 7 3 8 7 11 13 6 9 18 20 4 8 8 9 14 10 23 25 34 12 9 10 11 14 13 9 3
21 9 15 7 15 18 12 7 19 14 14 30 13 22 13 12 8 14 6 1 2 7 8 7 10 8 19 15 5 19 15 15 19 26 18 37 24 26 18 16 19 19 11 1 9
22 9 14 7 19 22 27 29 25 9 14 19 22 13 24 27 20 12 16 8 10 4 7 4 6 4 15 8 15 25 18 20 25 30 28 32 35 26 18 13 16 12 6 3 10
41 32 28 17 10 13 21 28 27 22 19 20 24 20 20 22 30 32 24 15 11 13 14 11 6 4 15 0 3 14 22 29 24 24 24 24 34 21 13 9 14 12 2 6 8
Wind_Direction
12 13 13 12 12 10 11 12 10 11 11 12 11 20 72 69 55 58 54 45 52 49 48 45 36 20 9 18 17 30 65 318 359 61 119 58 106 74 89 87 75 86 88 89 23
2 2 6 6 5 3 5 7 6 7 6 7 7 12 59 50 43 39 38 37 38 32 27 24 25 22 340 330 6 61 88 264 19 71 106 68 115 116 92 99 86 91 90 68 33
355 354 356 359 359 358 359 1 3 2 1 2 4 12 58 85 54 25 34 30 35 35 31 35 24 357 329 258 3 357 208 333 54 91 52 14 61 97 126 56 106 116 101 77 47
344 348 349 352 354 355 354 355 358 358 356 356 0 20 70 48 87 33 42 39 43 30 27 26 14 3 324 250 162 4 269 344 360 30 50 6 97 84 76 122 129 121 110 92 55
332 338 340 344 347 350 350 349 351 352 351 349 357 18 70 54 94 62 57 40 37 26 21 20 19 350 351 338 337 181 268 280 312 337 20 323 143 126 120 140 141 121 100 75 50
320 326 331 335 338 342 345 344 344 344 342 342 348 3 258 284 268 23 14 13 20 19 18 7 1 332 281 263 145 314 301 286 297 190 178 138 138 105 162 143 123 111 94 77 55
312 316 320 326 330 334 337 341 340 339 334 331 338 313 274 267 203 31 29 12 5 360 360 349 347 325 318 319 308 253 318 5 213 199 220 179 215 156 155 149 132 124 115 99 70
300 308 313 318 322 326 330 334 336 334 327 325 331 297 257 245 211 300 6 6 349 348 347 337 329 313 256 313 314 316 149 129 254 170 236 135 262 164 158 152 145 141 136 127 77
292 298 307 315 320 322 327 330 335 327 320 323 314 290 241 234 239 261 312 342 341 345 332 327 320 345 349 48 357 1 283 294 328 215 155 163 243 175 173 161 155 150 144 136 87
287 294 303 312 320 323 327 333 338 323 342 345 286 300 238 229 256 269 291 325 343 348 331 322 306 44 19 74 250 278 303 301 269 237 202 200 243 168 180 169 166 157 150 138 96
290 294 300 309 320 327 331 347 1 306 314 274 281 262 271 271 257 255 273 316 52 35 354 278 66 259 212 140 223 255 258 254 267 247 187 231 248 190 185 177 170 167 160 153 99
288 291 296 306 317 328 339 10 2 317 303 288 268 264 262 255 248 220 259 197 127 242 325 10 248 198 170 204 226 235 263 273 282 168 338 257 253 245 185 187 175 168 167 164 133
279 285 291 299 309 315 343 350 340 340 299 294 253 244 231 210 218 216 232 204 160 171 177 190 222 163 177 207 239 252 231 253 255 328 300 283 272 207 193 173 180 174 176 150 127
273 277 282 290 300 291 324 330 329 343 46 270 241 216 190 205 262 206 180 149 212 255 198 238 213 164 188 244 176 264 176 229 280 350 248 126 290 198 175 184 184 183 175 154 133
269 268 270 268 253 281 292 303 316 351 4 255 202 186 205 193 259 189 197 57 183 196 108 247 193 204 216 225 156 242 43 249 254 249 357 237 255 256 163 205 196 182 166 148 143
262 259 256 256 252 252 250 268 314 54 250 234 165 189 156 200 217 167 172 30 244 25 247 248 139 175 204 135 184 16 306 265 222 169 260 240 207 234 180 218 175 171 160 153 151
259 257 247 238 236 227 213 211 39 161 268 208 204 178 179 200 203 170 160 320 164 336 305 333 218 100 132 127 17 74 49 320 339 338 238 209 286 245 221 198 172 160 156 154 146
257 258 244 233 224 220 204 67 191 226 240 130 148 149 192 165 215 145 122 251 247 169 325 229 302 175 173 189 185 191 165 170 260 242 284 335 256 245 126 120 136 144 148 150 152
247 246 253 229 221 212 191 194 196 201 216 160 89 183 236 214 189 144 205 213 218 169 185 239 258 95 37 28 145 191 186 166 278 135 4 242 275 344 158 133 139 146 153 161 193
231 235 248 227 215 207 160 224 219 219 144 156 184 180 205 200 175 181 194 204 205 183 168 198 291 188 157 63 310 211 181 71 77 289 275 268 264 237 193 198 179 167 163 182 335
215 247 233 217 205 190 207 217 225 227 168 175 205 229 218 189 190 199 222 249 165 133 122 151 168 211 126 199 188 137 235 230 190 173 233 293 248 233 195 185 183 175 171 212 289
204 229 206 192 180 210 222 200 226 207 235 245 206 218 226 170 246 232 227 203 173 154 163 206 172 225 224 213 206 175 202 191 210 228 238 252 271 182 185 162 167 172 189 211 256
214 225 210 187 216 219 244 220 232 177 220 205 222 215 199 202 246 226 234 178 169 156 171 181 214 335 294 15 342 220 206 213 259 288 242 247 259 87 131 147 173 181 196 197 284
200 216 189 200 226 219 221 242 225 221 230 237 232 192 164 224 223 257 199 226 200 169 170 165 204 198 254 268 134 234 193 204 215 244 253 241 258 238 186 177 191 191 194 200 275
205 223 194 204 215 224 216 228 220 225 213 206 239 224 206 234 205 228 206 146 274 186 176 168 242 198 256 274 270 263 248 216 218 235 233 258 246 257 244 219 198 191 181 314 342
204 193 176 210 202 203 221 233 233 219 201 218 225 201 218 229 218 231 219 185 205 172 168 180 252 145 271 237 246 259 248 244 238 243 245 252 267 258 271 185 161 174 171 341 345
221 224 215 215 194 195 217 227 228 217 246 232 213 225 225 225 228 240 234 225 206 170 186 169 192 158 258 227 340 274 238 229 241 242 231 242 246 275 248 174 172 166 155 348 343